Regional Weather Roundup
Issued by NWS

Home | Current Version | Previous Version | Text Only | Print | Product List | Glossary On
Versions: 1 2 3 4 5 6 7 8 9 10 11 12 13 14 15 16 17 18 19 20 21 22 23 24 25 26 27 28 29 30 31 32 33 34 35 36 37 38 39 40 41 42 43 44 45 46 47 48 49 50
000
ASUS42 KKEY 010710
RWRKEY

FLORIDA REGIONAL WEATHER ROUNDUP FOR THE FLORIDA KEYS
NATIONAL WEATHER SERVICE KEY WEST FLORIDA
200 AM EST SUN MAR 01 2015

...SOUTH FLORIDA AND THE KEYS...

CITY           SKY/WX    TMP DP  RH WIND       PRES   REMARKS
FORT MYERS     CLOUDY    69  69 100 NE8       30.27F
SW REGIONAL AP CLOUDY    70  68  93 NE8       30.28F
NAPLES         CLOUDY    71  70  96 E10       30.26F
MIAMI          PTCLDY    75  68  78 E10       30.26F
WEST KENDALL   CLOUDY    73  69  87 E12       30.26F
HOMESTEAD      PTCLDY    75  70  84 E15G21    30.24F
MARATHON       CLEAR     75  72  90 E13       30.22F
BOCA CHICA NAS PTCLDY    76  71  85 E16       30.22F
KEY WEST INTL  PTCLDY    75  72  90 E14G22    30.22F

...INTERNATIONAL WEATHER...

CITY           SKY/WX    TMP DP  RH WIND       PRES   REMARKS
NASSAU BAHAMAS MOCLDY    72  68  88 E7        30.26S VSB 5/8
CANCUN MEXICO  CLEAR     77  72  83 NE6       30.14F
COZUMEL MEXICO CLEAR     68  68 100 CALM      30.13F

ADJACENT COASTAL WATERS...

STATION/POSITION TIME  SKY/WX   TEMP    WIND        PRES    WAVE
                                AIR SEA DIR/SP/G            HT/PER
                 (UTC)          (F)     (DEG/KT/KT) (MB)    (FT/S)
PULASKI SHOAL LI 0600            70      60/ 16/ 18 1023.4F
SAND KEY         0650            74      70/ 16/ 18 1023.1F
SOMBRERO KEY     0700            75      80/ 19/ 21 1023.5F
LONG KEY         0700            76 77   90/ 17/ 18 1024.3F
MOLASSES REEF    0700            76 76   80/ 19/ 20 1023.4F
FOWEY ROCKS      NOT AVBL
Buoy 42080       NOT AVBL

$$


USA.gov is the U.S. government's official web portal to all federal, state and local government web resources and services.